DW6120 Weather Reports


Display with metric or nautical units.
time (UTC)temp
F
wind
direction
speed
MPH
gust
MPH
rain 1hr
in
rain 24hr
in
rain mn
in
humidity
%
barometer
mb
20260901054515 57 73 2.0 5.0 0.00 0.04 0.04 83 1011.5
20260901053014 57 344 1.0 3.0 0.00 0.04 0.04 82 1011.9
20260901051527 57 344 1.0 5.0 0.00 0.04 0.04 82 1011.9
20260901050014 57 79 1.0 7.0 0.00 0.04 0.04 82 1011.7
20260901044514 57 267 5.0 9.0 0.00 0.04 0.04 81 1011.8
20260901043014 57 360 2.0 5.0 0.00 0.04 0.04 84 1011.6
20260901041523 56 161 3.0 6.0 0.00 0.04 0.04 85 1012.2
20260901040018 56 229 4.0 7.0 0.00 0.04 0.04 86 1012.1
20260901034511 56 146 2.0 4.0 0.00 0.04 0.04 86 1012.0
20260901033011 56 146 2.0 4.0 0.00 0.04 0.04 86 1012.1
20260901031508 56 146 1.0 3.0 0.00 0.04 0.04 84 1012.0
20260901030005 57 235 2.0 3.0 0.00 0.04 0.04 82 1011.8
20260901024504 58 248 3.0 6.0 0.00 0.04 0.04 79 1011.4
20260901023004 58 69 2.0 4.0 0.00 0.04 0.04 79 1010.9
20260901021504 58 75 2.0 8.0 0.00 0.04 0.04 80 1010.9
20260901020004 58 88 0.0 5.0 0.00 0.04 0.04 80 1011.4
20260901014511 58 126 6.0 9.0 0.00 0.04 0.04 82 1011.4
20260901013003 58 128 2.0 8.0 0.00 0.04 0.04 80 1011.5
20260901011600 59 61 3.0 9.0 0.00 0.04 0.04 77 1011.6
20260901010059 59 247 8.0 27.0 0.00 0.04 0.04 76 1012.0
20260901004558 60 219 10.0 20.0 0.01 0.04 0.04 74 1012.5
20260901003058 60 155 7.0 17.0 0.03 0.04 0.04 72 1012.9
20260901001603 60 206 10.0 21.0 0.04 0.04 0.04 72 1012.9
20260901000106 60 161 7.0 19.0 0.04 0.04 0.04 73 1012.9
20260831234615 61 211 4.0 17.0 0.03 0.03 0.03 76 1012.8
20260831233108 64 148 7.0 18.0 0.01 0.01 0.01 66 1013.0
20260831231549 67 220 10.0 25.0 0.01 0.01 0.01 59 1012.1
20260831230048 75 228 7.0 14.0 0.00 0.00 0.00 40 1009.5
20260831224548 76 153 8.0 17.0 0.00 0.00 0.00 41 1008.6
20260831223048 77 130 3.0 12.0 0.00 0.00 0.00 40 1008.0
20260831221550 78 198 3.0 12.0 0.00 0.00 0.00 38 1007.8
20260831220047 79 180 5.0 12.0 0.00 0.00 0.00 40 1007.6
20260831214553 80 189 2.0 9.0 0.00 0.00 0.00 35 1007.8
20260831213044 80 192 2.0 10.0 0.00 0.00 0.00 35 1007.9
20260831211543 81 154 5.0 10.0 0.00 0.00 0.00 35 1008.2
20260831210045 80 190 5.0 9.0 0.00 0.00 0.00 34 1008.2
20260831204541 80 140 7.0 16.0 0.00 0.00 0.00 33 1008.5
20260831203039 81 207 2.0 8.0 0.00 0.00 0.00 34 1008.8
20260831201546 80 214 5.0 18.0 0.00 0.00 0.00 34 1008.9
20260831200036 80 179 7.0 18.0 0.00 0.00 0.00 32 1009.0
20260831194534 80 176 6.0 21.0 0.00 0.00 0.00 32 1009.2
20260831193031 79 87 6.0 17.0 0.00 0.00 0.00 34 1009.4
20260831191530 79 159 9.0 16.0 0.00 0.00 0.00 35 1009.8
20260831190032 79 143 9.0 16.0 0.00 0.00 0.00 35 1009.9
20260831184531 79 126 8.0 15.0 0.00 0.00 0.00 36 1010.1
20260831183031 77 283 4.0 9.0 0.00 0.00 0.00 41 1010.2
20260831181524 74 285 4.0 7.0 0.00 0.00 0.00 48 1010.5
20260831180024 73 321 3.0 10.0 0.00 0.00 0.00 51 1010.8
20260831174521 72 14 1.0 6.0 0.00 0.00 0.00 52 1011.0
20260831173017 71 297 2.0 5.0 0.00 0.00 0.00 53 1011.1
20260831171520 70 278 1.0 4.0 0.00 0.00 0.00 51 1011.1
20260831170019 73 343 2.0 4.0 0.00 0.00 0.00 45 1011.3
20260831164519 73 192 0.0 5.0 0.00 0.00 0.00 45 1011.4
20260831163013 72 192 1.0 3.0 0.00 0.00 0.00 48 1011.3
20260831161512 71 171 0.0 3.0 0.00 0.00 0.00 47 1011.3
20260831160013 71 168 1.0 4.0 0.00 0.00 0.00 46 1011.2
20260831154509 69 165 0.0 3.0 0.00 0.00 0.00 47 1011.1
20260831153003 66 167 1.0 5.0 0.00 0.00 0.00 53 1011.2
20260831151601 64 94 1.0 3.0 0.00 0.00 0.00 58 1011.4
20260831150058 61 98 2.0 3.0 0.00 0.00 0.00 59 1011.5
20260831144557 60 114 3.0 4.0 0.00 0.00 0.00 58 1011.5
20260831143112 61 111 2.0 5.0 0.00 0.00 0.00 56 1011.6
20260831141603 60 122 2.0 7.0 0.00 0.00 0.00 56 1011.7
20260831140055 60 107 4.0 6.0 0.00 0.00 0.00 56 1011.7
20260831134553 60 113 2.0 5.0 0.00 0.00 0.00 55 1011.6
20260831133051 60 82 3.0 7.0 0.00 0.03 0.00 55 1011.4
20260831131551 60 73 3.0 6.0 0.00 0.03 0.00 54 1011.3
20260831130053 60 96 5.0 7.0 0.00 0.03 0.00 53 1011.3
20260831124550 60 117 1.0 8.0 0.00 0.03 0.00 52 1011.1
20260831123050 59 96 5.0 8.0 0.00 0.03 0.00 53 1011.1
20260831121553 59 88 5.0 8.0 0.00 0.03 0.00 52 1011.2
20260831120049 59 82 3.0 8.0 0.00 0.03 0.00 52 1011.3
20260831114553 59 84 5.0 7.0 0.00 0.03 0.00 53 1011.3
20260831113049 59 78 6.0 8.0 0.00 0.15 0.00 52 1011.5
20260831111550 59 91 3.0 7.0 0.00 0.15 0.00 53 1011.5
20260831110056 59 67 3.0 7.0 0.00 0.15 0.00 51 1011.4
20260831104546 59 90 4.0 8.0 0.00 0.15 0.00 51 1011.3
20260831103044 59 98 4.0 7.0 0.00 0.15 0.00 51 1011.3
20260831101550 60 95 5.0 8.0 0.00 0.15 0.00 51 1011.3
20260831100038 60 95 5.0 7.0 0.00 0.15 0.00 51 1011.1
20260831094540 60 66 2.0 7.0 0.00 0.15 0.00 50 1011.1
20260831093035 60 92 5.0 8.0 0.00 0.15 0.00 49 1010.9
20260831091544 60 107 6.0 9.0 0.00 0.15 0.00 51 1011.0
20260831090033 60 87 5.0 7.0 0.00 0.15 0.00 53 1011.0
20260831084532 60 91 4.0 7.0 0.00 0.15 0.00 54 1010.9
20260831083030 61 96 5.0 8.0 0.00 0.15 0.00 52 1010.9
20260831081529 61 121 5.0 8.0 0.00 0.15 0.00 50 1011.1
20260831080031 61 85 5.0 7.0 0.00 0.15 0.00 51 1011.1
20260831074527 61 96 3.0 8.0 0.00 0.15 0.00 51 1011.2
20260831073028 61 73 4.0 8.0 0.00 0.15 0.00 53 1011.4
20260831071522 61 85 6.0 8.0 0.00 0.15 0.00 53 1011.2
20260831070020 62 91 6.0 10.0 0.00 0.15 0.00 50 1011.3
20260831064518 62 98 5.0 9.0 0.00 0.15 0.00 49 1011.4
20260831063016 62 92 5.0 8.0 0.00 0.15 0.15 50 1011.2
20260831061519 61 88 6.0 8.0 0.00 0.15 0.15 51 1011.2
20260831060015 62 86 5.0 8.0 0.00 0.15 0.15 52 1011.2